Weather reports worldwide

Advertisment
Strathallan, United Kingdom (3144): temperature & dewpoint: 13.04.2019 00:00:00 - 19.04.2019 00:00:00 (BST)Strathallan, United Kingdom (3144): temperature -20cm & temperature -100cm: 13.04.2019 00:00:00 - 19.04.2019 00:00:00 (BST)Strathallan, United Kingdom (3144): wind speed & gusts: 13.04.2019 00:00:00 - 19.04.2019 00:00:00 (BST)Strathallan, United Kingdom (3144): wind direction: 13.04.2019 00:00:00 - 19.04.2019 00:00:00 (BST)Strathallan, United Kingdom (3144): reduced air pressure: 13.04.2019 00:00:00 - 19.04.2019 00:00:00 (BST)Strathallan, United Kingdom (3144): visibility: 13.04.2019 00:00:00 - 19.04.2019 00:00:00 (BST)Strathallan, United Kingdom (3144): precipitation: 13.04.2019 00:00:00 - 19.04.2019 00:00:00 (BST)
Date & Time tt [°C] td [°C] tt -20cm [°C] tt -100cm [°C] ff [km/h] ff [kn] fx [km/h] fx [kn] dd ppp [hPa] vv [km] rr [mm]
19.04.2019 00:00:00 8,3 6,7 - - 9 5 - - ENE 1031,4 10 0,0
18.04.2019 23:00:00 7,9 6,7 - - 8 4 - - E 1031,2 8 0,0
18.04.2019 22:00:00 7,9 6,5 - - 9 5 - - E 1030,9 9 0,0
18.04.2019 21:00:00 8,7 6,6 - - 9 5 - - ENE 1030,5 10 0,0
18.04.2019 20:00:00 10,1 7,1 - - 13 7 - - ENE 1029,6 12 0,0
18.04.2019 19:00:00 11,8 7,5 - - 16 9 - - ENE 1029,1 13 0,0
18.04.2019 18:00:00 13,2 7,7 - - 18 10 - - E 1028,6 20 0,0
18.04.2019 17:00:00 14,6 8,3 - - 16 9 - - ENE 1028,3 16 0,0
18.04.2019 16:00:00 14,8 8,5 - - 21 11 - - ENE 1028,3 17 0,0
18.04.2019 15:00:00 15,2 8,5 - - 18 10 - - ENE 1028,5 17 0,0
18.04.2019 14:00:00 14,3 8,2 - - 18 10 - - ENE 1028,7 15 0,0
18.04.2019 13:00:00 13,6 8,1 - - 16 9 - - ENE 1028,8 18 0,0
18.04.2019 12:00:00 10,7 6,8 - - 13 7 - - E 1029,3 9 0,0
18.04.2019 11:00:00 8,7 6,6 - - 11 6 - - ENE 1029,8 6 0,0
18.04.2019 10:00:00 7,4 6,1 7,7 7,0 9 5 - - ENE 1030,0 4,4 0,0
18.04.2019 09:00:00 6,6 6,1 - - 5 3 - - ESE 1029,7 3,1 0,0
18.04.2019 08:00:00 5,9 5,5 - - 5 3 - - ENE 1029,5 1,2 0,0
18.04.2019 07:00:00 5,6 5,0 - - 5 3 - - ENE 1029,1 2,5 0,0
18.04.2019 06:00:00 5,5 4,6 - - 9 5 - - NE 1028,8 4,6 0,0
18.04.2019 05:00:00 5,7 4,5 - - 9 5 - - NE 1028,6 6 0,0
18.04.2019 04:00:00 5,8 4,4 - - 11 6 - - N 1028,3 8 0,0
18.04.2019 03:00:00 6,2 4,8 - - 9 5 - - NNE 1028,0 9 0,0
18.04.2019 02:00:00 6,2 4,7 - - 9 5 - - NNE 1027,8 9 0,0
18.04.2019 01:00:00 6,2 4,7 - - 8 4 - - N 1027,8 9 0,0
18.04.2019 00:00:00 6,4 4,7 - - 8 4 - - NNE 1027,7 11 0,0
17.04.2019 23:00:00 7,0 5,0 - - 9 5 - - NE 1027,5 11 0,0
17.04.2019 22:00:00 7,2 5,0 - - 13 7 - - ENE 1027,3 11 0,0
17.04.2019 21:00:00 6,7 4,4 - - 8 4 - - ENE 1026,6 12 0,0
17.04.2019 20:00:00 8,6 4,4 - - 11 6 - - ENE 1025,6 18 0,0
17.04.2019 19:00:00 10,1 5,4 - - 13 7 - - ENE 1024,7 16 0,0
17.04.2019 18:00:00 10,8 4,9 - - 16 9 - - ENE 1024,5 24 0,0
17.04.2019 17:00:00 11,0 5,4 - - 18 10 - - ENE 1024,3 16 0,0
17.04.2019 16:00:00 11,7 6,2 - - 16 9 - - ENE 1024,4 16 0,0
17.04.2019 15:00:00 11,4 6,4 - - 16 9 - - ENE 1024,5 15 0,0
17.04.2019 14:00:00 11,8 6,5 - - 16 9 - - ENE 1024,7 21 0,0
17.04.2019 13:00:00 10,7 5,3 - - 16 9 - - E 1024,8 30 0,0
17.04.2019 12:00:00 9,5 5,6 - - 16 9 - - ENE 1024,8 15 0,0
17.04.2019 11:00:00 9,3 6,0 - - 13 7 - - ENE 1024,9 16 0,0
17.04.2019 10:00:00 7,4 5,3 7,0 7,0 13 7 - - NE 1024,7 14 0,0
17.04.2019 09:00:00 6,6 4,8 - - 13 7 - - NE 1024,3 13 0,0
17.04.2019 08:00:00 6,0 4,5 - - 9 5 - - NE 1023,9 13 0,0
17.04.2019 07:00:00 5,9 4,3 - - 9 5 - - NE 1023,6 14 0,0
17.04.2019 06:00:00 6,0 4,3 - - 9 5 - - ENE 1023,3 13 0,0
17.04.2019 05:00:00 6,1 4,2 - - 9 5 - - ENE 1023,1 15 0,0
17.04.2019 04:00:00 6,2 4,1 - - 11 6 - - ENE 1023,0 15 0,0
17.04.2019 03:00:00 6,2 4,3 - - 11 6 - - ENE 1023,1 14 0,0
17.04.2019 02:00:00 6,3 4,3 - - 13 7 - - ENE 1023,2 14 0,0
17.04.2019 01:00:00 6,5 4,5 - - 16 9 - - ENE 1023,0 11 0,0
17.04.2019 00:00:00 6,5 4,8 - - 15 8 - - ENE 1023,0 12 0,0
16.04.2019 23:00:00 6,6 5,0 - - 13 7 - - ENE 1022,8 11 0,0
16.04.2019 22:00:00 6,7 5,3 - - 13 7 - - ENE 1022,7 10 0,0
16.04.2019 21:00:00 6,7 5,6 - - 13 7 - - ENE 1022,3 9 0,2
16.04.2019 20:00:00 7,0 5,5 - - 16 9 - - ENE 1021,8 9 0,0
16.04.2019 19:00:00 7,3 5,5 - - 16 9 - - ENE 1021,3 9 0,0
16.04.2019 18:00:00 7,4 5,8 - - 15 8 - - ENE 1021,1 8 0,4
16.04.2019 17:00:00 7,7 5,6 - - 18 10 - - ENE 1021,1 7 0,2
16.04.2019 16:00:00 8,4 5,2 - - 18 10 - - ENE 1020,8 11 0,0
16.04.2019 15:00:00 8,8 5,3 - - 21 11 - - ENE 1020,9 12 0,0
16.04.2019 14:00:00 8,8 5,4 - - 21 11 - - ENE 1020,7 11 0,0
16.04.2019 13:00:00 8,9 5,6 - - 18 10 - - ENE 1020,4 11 0,0
16.04.2019 12:00:00 8,7 5,7 - - 21 11 - - E 1020,3 10 0,0
16.04.2019 11:00:00 8,5 5,9 - - 22 12 - - E 1020,2 9 0,0
16.04.2019 10:00:00 8,1 5,8 6,9 7,0 15 8 - - E 1020,0 9 0,0
16.04.2019 09:00:00 7,9 5,7 - - 13 7 - - E 1019,9 9 0,0
16.04.2019 08:00:00 7,6 5,6 - - 15 8 - - E 1019,4 8 0,0
16.04.2019 07:00:00 7,3 5,3 - - 9 5 - - E 1019,3 8 0,0
16.04.2019 06:00:00 7,1 4,9 - - 11 6 - - ENE 1019,0 9 0,0
16.04.2019 05:00:00 7,1 4,9 - - 15 8 - - E 1019,1 9 0,0
16.04.2019 04:00:00 7,2 5,0 - - 18 10 - - ENE 1019,3 8 0,0
16.04.2019 03:00:00 7,1 5,0 - - 13 7 - - ENE 1019,4 9 0,0
16.04.2019 02:00:00 7,2 4,8 - - 15 8 - - ENE 1019,7 9 0,0
16.04.2019 01:00:00 7,3 4,6 - - 15 8 - - E 1019,8 10 0,0
16.04.2019 00:00:00 7,4 3,3 - - 21 11 - - E 1019,8 12 0,0
15.04.2019 23:00:00 7,4 3,4 - - 22 12 - - E 1019,8 15 0,0
15.04.2019 22:00:00 7,3 3,9 - - 22 12 - - E 1019,8 14 0,0
15.04.2019 21:00:00 7,5 4,3 - - 22 12 - - E 1019,7 11 0,0
15.04.2019 20:00:00 7,7 4,6 - - 21 11 48 26 E 1019,5 11 0,0
15.04.2019 19:00:00 7,9 4,4 - - 22 12 - - E 1019,4 13 0,0
15.04.2019 18:00:00 8,3 3,8 - - 22 12 - - E 1019,5 18 0,0
15.04.2019 17:00:00 8,6 3,7 - - 28 15 - - E 1019,8 18 0,0
15.04.2019 16:00:00 9,0 3,2 - - 28 15 46 25 E 1020,3 20 0,0
15.04.2019 15:00:00 9,2 2,4 - - 34 18 50 27 E 1020,9 35 0,0
15.04.2019 14:00:00 9,2 0,9 - - 31 17 48 26 E 1021,8 25 0,0
15.04.2019 13:00:00 9,8 2,2 - - 26 14 - - E 1022,6 18 0,0
15.04.2019 12:00:00 8,7 1,5 - - 28 15 - - E 1023,7 26 0,0
15.04.2019 11:00:00 8,6 2,2 - - 26 14 - - E 1024,4 15 0,0
15.04.2019 10:00:00 7,2 1,8 6,5 7,0 24 13 - - E 1025,2 17 0,0
15.04.2019 09:00:00 5,7 1,7 - - 22 12 - - E 1025,8 29 0,0
15.04.2019 08:00:00 4,3 1,0 - - 16 9 - - E 1026,3 23 0,0
15.04.2019 07:00:00 2,9 0,2 - - 9 5 - - E 1026,4 23 0,0
15.04.2019 06:00:00 1,8 -0,3 - - 11 6 - - ENE 1026,1 22 0,0
15.04.2019 05:00:00 2,9 0,2 - - 11 6 - - E 1026,5 35 0,0
15.04.2019 04:00:00 3,2 0,1 - - 11 6 - - E 1027,1 40 0,0
15.04.2019 03:00:00 4,7 0,6 - - 15 8 - - E 1027,5 45 0,0
15.04.2019 02:00:00 4,7 1,2 - - 16 9 - - E 1027,6 45 0,0
15.04.2019 01:00:00 4,9 0,9 - - 15 8 - - E 1028,2 50 0,0
15.04.2019 00:00:00 5,2 1,6 - - 11 6 - - ESE 1028,3 40 0,0
14.04.2019 23:00:00 5,6 1,2 - - 16 9 - - E 1028,3 30 0,0
14.04.2019 22:00:00 5,6 1,0 - - 15 8 - - E 1028,3 40 0,0
14.04.2019 21:00:00 5,8 0,0 - - 16 9 - - E 1028,6 50 0,0
14.04.2019 20:00:00 6,7 0,0 - - 21 11 - - E 1028,1 50 0,0
14.04.2019 19:00:00 6,9 0,9 - - 18 10 - - E 1027,9 35 0,0
14.04.2019 18:00:00 7,2 1,4 - - 18 10 - - E 1027,8 40 0,0
14.04.2019 17:00:00 7,4 -0,1 - - 26 14 - - E 1028,0 50 0,0
14.04.2019 16:00:00 8,0 0,0 - - 24 13 - - E 1028,5 50 0,0
14.04.2019 15:00:00 8,3 0,3 - - 22 12 - - E 1028,6 40 0,0
14.04.2019 14:00:00 8,0 1,1 - - 22 12 - - E 1028,5 30 0,0
14.04.2019 13:00:00 7,3 1,1 - - 18 10 - - E 1028,9 50 0,0
14.04.2019 12:00:00 7,6 -0,3 - - 18 10 - - E 1029,0 45 0,0
14.04.2019 11:00:00 8,3 -0,1 - - 26 14 - - E 1029,4 35 0,0
14.04.2019 10:00:00 7,2 -1,2 6,5 7,0 21 11 - - E 1029,7 50 0,0
14.04.2019 09:00:00 6,7 -1,0 - - 11 6 - - E 1029,7 45 0,0
14.04.2019 08:00:00 4,9 -1,6 - - 11 6 - - E 1029,9 50 0,0
14.04.2019 07:00:00 3,0 -0,5 - - 4 2 - - E 1029,5 50 0,0
14.04.2019 06:00:00 2,1 -0,5 - - 4 2 - - NNE 1029,1 45 0,0
14.04.2019 05:00:00 0,5 -1,2 - - 5 3 - - ENE 1029,2 45 0,0
14.04.2019 04:00:00 -0,2 -2,7 - - 5 3 - - WSW 1029,7 40 0,0
14.04.2019 03:00:00 2,3 -1,8 - - 9 5 - - ENE 1029,5 45 0,0
14.04.2019 02:00:00 1,9 -2,1 - - 9 5 - - ENE 1029,7 45 0,0
14.04.2019 01:00:00 2,9 -2,4 - - 13 7 - - E 1029,7 45 0,0
14.04.2019 00:00:00 2,5 -1,7 - - 11 6 - - ENE 1029,6 50 0,0
13.04.2019 23:00:00 2,6 -1,3 - - 11 6 - - ENE 1029,7 50 0,0
13.04.2019 22:00:00 3,1 -1,2 - - 11 6 - - E 1029,7 50 0,0
13.04.2019 21:00:00 4,2 -0,5 - - 13 7 - - E 1029,5 50 0,0
13.04.2019 20:00:00 5,4 -0,6 - - 16 9 - - E 1029,0 45 0,0
13.04.2019 19:00:00 6,8 -0,2 - - 21 11 - - E 1028,9 50 0,0
13.04.2019 18:00:00 7,8 -0,5 - - 22 12 - - E 1028,9 35 0,0
13.04.2019 17:00:00 8,6 -0,5 - - 24 13 - - E 1029,1 30 0,0
13.04.2019 16:00:00 8,9 -0,4 - - 24 13 - - E 1029,4 45 0,0
13.04.2019 15:00:00 8,4 -0,6 - - 22 12 - - E 1030,0 45 0,0
13.04.2019 14:00:00 8,2 0,9 - - 22 12 - - E 1030,2 50 0,0
13.04.2019 13:00:00 7,1 0,3 - - 24 13 - - E 1030,3 40 0,0
13.04.2019 12:00:00 6,6 -0,6 - - 21 11 - - ESE 1030,7 45 0,0
13.04.2019 11:00:00 6,6 -2,6 - - 24 13 - - E 1031,0 50 0,0
13.04.2019 10:00:00 5,9 1,0 6,9 6,9 8 4 - - E 1031,5 45 0,0
13.04.2019 09:00:00 2,0 1,4 - - 2 1 - - NNW 1032,0 40 0,0
13.04.2019 08:00:00 -0,8 -1,2 - - 4 2 - - WSW 1031,9 13 0,0
13.04.2019 07:00:00 -2,3 -2,8 - - 4 2 - - WSW 1031,7 9 0,0
13.04.2019 06:00:00 -2,3 -2,9 - - 5 3 - - WSW 1031,5 10 0,0
13.04.2019 05:00:00 -2,2 -2,9 - - 0 0 - - N 1031,4 13 0,0
13.04.2019 04:00:00 -1,3 -2,3 - - 2 1 - - SW 1031,5 13 0,0
13.04.2019 03:00:00 0,3 -1,2 - - 2 1 - - S 1031,5 21 0,0
13.04.2019 02:00:00 2,5 0,0 - - 11 6 - - E 1031,2 35 0,0
13.04.2019 01:00:00 3,1 0,0 - - 9 5 - - ENE 1030,8 35 0,0
13.04.2019 00:00:00 4,9 -0,4 - - 13 7 - - E 1030,5 50 0,0

tt = temperature
td = dewpoint
tt -20cm = temperature -20cm
tt -100cm = temperature -100cm
ff = wind speed
fx = gusts
dd = wind direction
ppp = reduced air pressure
vv = visibility
rr = precipitation

Next stations